Kansas City International, MO

6:56 PM CST on December 12, 2017 (GMT -0600)
Kansas City International

Weather History for KMCI - September, 2012

Change the Weather History Date:

Saturday, September 8, 2012

  Actual Average Record
Temperature  
Mean Temperature 64 °F 71 °F  
Max Temperature 77 °F 82 °F 102 °F (1947)
Min Temperature 50 °F 61 °F 43 °F (1986)
Degree Days  
Heating Degree Days 1 1  
Month to date heating degree days 1 3  
Since 1 July heating degree days 1 5  
Cooling Degree Days 0 7  
Month to date cooling degree days 91 65  
Year to date cooling degree days 1755 1238  
Growing Degree Days 14 (Base 50)    
Moisture  
Dew Point 48 °F    
Average Humidity 60    
Maximum Humidity 86    
Minimum Humidity 33    
Precipitation  
Precipitation 0.00 in 0.16 in 4.26 in (1989)
Month to date precipitation 2.40 1.22  
Year to date precipitation 18.06 28.62  
Snow  
Snow 0.00 in 0.00 in 0.00 in ()
Month to date snowfall 0.0 0.0  
Since 1 July snowfall 0.0 0.0  
Since 1 September snowfall 0.0 0.0  
Snow Depth 0.00 in    
Sea Level Pressure  
Sea Level Pressure 30.08 in    
Wind  
Wind Speed 8 mph (WNW)    
Max Wind Speed 16 mph    
Max Gust Speed 23 mph    
Visibility 10 miles    
Events      
T = Trace of Precipitation, MM = Missing Value Source: NWS Daily Summary

Daily Weather History Graph

Daily Weather History Graph

Search for Another Location

Airport or City:

Trip Planner

Search our weather history database for the weather conditions in past years. The results will help you decide how hot, cold, wet, or windy it might be!

Date:

Astronomy

Sep. 08, 2012 Rise Set
Actual Time 6:54 AM CDT 7:37 PM CDT
Civil Twilight 6:27 AM CDT 8:04 PM CDT
Nautical Twilight 5:54 AM CDT 8:36 PM CDT
Astronomical Twilight 5:21 AM CDT 9:09 PM CDT
Moon No Moon Rise 2:33 PM CDT (9/8)
Length of Visible Light 13h 37m
Length of Day
12h 43m
Waning Gibbous, 48% of the Moon is Illuminated
Sep 8
Waning Gibbous
Sep 15
New
Sep 22
First Quarter
Sep 29
Full
Oct 8
Last Quarter

Hourly Weather History & Observations

Time (CDT) Temp. Dew Point Humidity Pressure Visibility Wind Dir Wind Speed Gust Speed Precip Events Conditions
12:53 AM 57.9 °F 52.0 °F 81% 30.07 in 10.0 mi NNW 6.9 mph - N/A   Clear
1:53 AM 57.0 °F 50.0 °F 77% 30.10 in 10.0 mi NNW 6.9 mph - N/A   Clear
2:53 AM 55.0 °F 48.9 °F 80% 30.11 in 10.0 mi North 5.8 mph - N/A   Clear
3:53 AM 54.0 °F 48.0 °F 80% 30.12 in 10.0 mi NW 5.8 mph - N/A   Clear
4:53 AM 53.1 °F 48.0 °F 83% 30.12 in 10.0 mi NW 8.1 mph - N/A   Clear
5:53 AM 50.0 °F 46.9 °F 89% 30.12 in 10.0 mi NW 6.9 mph - N/A   Clear
6:53 AM 51.1 °F 46.9 °F 86% 30.13 in 10.0 mi NW 8.1 mph - N/A   Clear
7:53 AM 54.0 °F 48.9 °F 83% 30.14 in 10.0 mi WNW 6.9 mph - N/A   Clear
8:53 AM 57.9 °F 50.0 °F 75% 30.16 in 10.0 mi WNW 5.8 mph - N/A   Clear
9:53 AM 62.1 °F 48.9 °F 62% 30.16 in 10.0 mi WNW 9.2 mph - N/A   Clear
10:53 AM 66.0 °F 48.0 °F 52% 30.15 in 10.0 mi NW 10.4 mph - N/A   Clear
11:53 AM 69.1 °F 46.9 °F 45% 30.14 in 10.0 mi NW 11.5 mph 16.1 mph N/A   Clear
12:53 PM 72.0 °F 46.9 °F 41% 30.13 in 10.0 mi NW 12.7 mph 19.6 mph N/A   Clear
1:53 PM 72.0 °F 46.0 °F 40% 30.10 in 10.0 mi NW 11.5 mph - N/A   Clear
2:53 PM 75.0 °F 46.9 °F 37% 30.07 in 10.0 mi NW 10.4 mph 19.6 mph N/A   Clear
3:53 PM 75.9 °F 46.0 °F 35% 30.04 in 10.0 mi WNW 9.2 mph 21.9 mph N/A   Clear
4:53 PM 77.0 °F 46.0 °F 33% 30.02 in 10.0 mi NW 11.5 mph - N/A   Clear
5:53 PM 77.0 °F 46.0 °F 33% 30.01 in 10.0 mi WNW 6.9 mph - N/A   Partly Cloudy
6:53 PM 73.9 °F 48.9 °F 41% 30.00 in 10.0 mi WSW 3.5 mph - N/A   Partly Cloudy
7:53 PM 69.1 °F 48.9 °F 49% 29.99 in 10.0 mi SSW 5.8 mph - N/A   Clear
8:53 PM 66.9 °F 48.0 °F 51% 30.00 in 10.0 mi SSW 5.8 mph - N/A   Clear
9:53 PM 63.0 °F 48.9 °F 60% 30.00 in 10.0 mi SSW 8.1 mph - N/A   Clear
10:53 PM 61.0 °F 48.0 °F 62% 29.99 in 10.0 mi SSW 8.1 mph - N/A   Clear
11:53 PM 61.0 °F 48.9 °F 64% 29.99 in 10.0 mi SW 8.1 mph - N/A   Clear